Погода в Языковой Пятиной

Россия / Республика Мордовия     53°46′44″N   44°33′28″E
темп.,
°C
ветер,
м/с
пор.,
м/с
влажн.,
%
обл.,
%
осадки,
мм/ч
давл.,
гПа
погр.,
м
18 апреля, вс
вс1800:00+9в4872100 0.1 1019233
03:00+8сз1487100 0.2 1019246
06:00+8в1186100 0.3 101961
09:00+9в3479100 0.3 1019424
12:00+8всв3380100 0.1 1020341
15:00+10в4671100 0.1 1020563
18:00+8в3889100 0.1 1021585
21:00+7св4983100 0.2 1021322
19 апреля, пн
пн1900:00+7всв51080100 0.1 1021657
03:00+6всв61282100 0.4 1021545
06:00+4всв71091100 1.1 1021694
09:00+2всв71395100 4.3 1022559
12:00+4всв71396100 1.7 1022682
15:00+4в71285100 2.2 1023810
18:00+5всв61289100 0.9 1022886
21:00+4в71391100 1.3 1023857
20 апреля, вт
вт2000:00+4в71393100 0.3 1023646
03:00+4в61295100 0.3 1024655
06:00+3вюв61296100 0.1 1025616
09:00+4вюв8148344 0.1 1024737
12:00+8вюв81262100 0.0 10251025
15:00+10вюв9146094 0.0 10221217
18:00+8вюв101661100 0.0 10211114
21:00+6вюв111961100 0.0 1020993
21 апреля, ср
ср2100:00+4юв112076100 2.2 1019960
03:00+3юв122285100 9.1 1017907
06:00+3юв112190100 1.1 1016923
09:00+3юв112090100 1.4 1016880
12:00+4ююв101992100 0.0 1016883
15:00+4ююв101893100 0.1 1017812
18:00+4ююв101895100 0.5 1018650
21:00+4ююв71397100 0.8 1020408
22 апреля, чт
чт2200:00+4ююв61298100 0.0 1021384
03:00+5ююв51098100 0.5 1022411
06:00+5ююв4898100 0.7 1023250
09:00+7ююв5893100 1.5 1024449
12:00+10ю5681100 0.1 1025795
15:00+11ю457296 1.3 1024748
18:00+10ю2279100 1.5 102555
21:00+8ююв2393100 1.7 102765